Probability
0 0 0 0 0 0 0 0 0 0 0 0 0 0 0 0 0 0 0 0 0 0 0 0 0 0 0 0 0 0 0 0 0 0 0 0 0 0 0 0 0 0 0 0 0 0 0 0 0
0 0 0 0 0 0 0 0 0 0 0 0 0 0 0 0 0 0 0 0 0 0 0 0 0 0 0 0 0 0 0 0 0 0 0 0 0 0 0 0 0 0 0 0 0 0 0 0 0
0 0 0 0 0 0 0 0 0 0 0 0 0 0 0 0 0 0 0 0 0 0 0 0 0 0 0 0 0 0 0 0 0 0 0 0 0 0 0 0 0 0 0 0 0 0 0 0 0
0 0 0 0 0 0 0 0 0 0 0 0 0 0 0 0 0 0 0 0 0 0 0 0 0 0 0 0 0 0 0 0 0 0 0 0 0 0 0 0 0 0 0 0 0 0 0 0 0
0 0 0 0 0 0 0 0 0 0 0 0 0 0 0 0 0 0 0 0 0 0 0 0 0 0 0 0 0 0 0 0 0 0 0 0 0 0 0 0 0 0 0 0 0 0 0 0 0
0 0 0 0 0 0 0 0 0 0 0 0 0 0 0 0 0 0 0 0 0 0 0 0 0 0 0 0 0 0 0 0 0 0 0 0 0 0 0 0 0 0 0 0 0 0 0 0 0
0 0 0 0 0 0 0 0 0 0 0 0 0 0 0 0 0 0 0 0 0 0 0 0 0 0 0 0 0 0 0 0 0 0 0 0 0 0 0 0 0 0 0 0 0 0 0 0 0
0 0 0 0 0 0 0 0 0 0 0 0 0 0 0 0 0 0 0 0 0 0 0 0 0 0 0 0 0 0 0 0 0 0 0 0 0 0 0 0 0 0 0 0 0 0 0 0 0
0 0 0 0 0 0 0 0 0 0 0 0 0 0 0 0 0 0 0 0 0 0 0 0 0 0 0 0 0 0 0 0 0 0 0 0 0 0 0 0 0 0 0 0 0 0 0 0 0
0 0 0 0 0 0 0 0 0 0 0 0 0 0 0 0 0 0 0 0 0 0 0 0 0 0 0 0 0 0 0 0 0 0 0 0 0 0 0 0 0 0 0 0 0 0 0 0 0
0 0 0 0 0 0 0 0 0 0 0 0 0 0 0 0 0 0 0 0 0 0 0 0 0 0 0 0 0 0 0 0 0 0 0 0 0 0 0 0 0 0 0 0 0 0 0 0 0
0 0 0 0 0 0 0 0 0 0 0 0 0 0 0 0 0 0 0 0 0 0 0 0 0 0 0 0 0 0 0 0 0 0 0 0 0 0 0 0 0 0 0 0 0 0 0 0 0
0 0 0 0 0 0 0 0 0 0 0 0 0 0 0 0 0 0 0 0 0 0 0 0 0 0 0 0 0 0 0 0 0 0 0 1 0 0 0 0 0 0 0 0 0 0 0 0 0
0 0 0 0 0 0 0 0 0 0 0 0 0 0 0 0 0 0 0 0 0 0 0 0 0 0 0 0 0 0 0 0 0 0 0 0 0 0 0 0 0 0 0 0 0 0 0 0 0
0 0 0 0 0 0 0 0 0 0 0 0 0 0 0 0 0 0 0 0 0 0 0 0 0 0 0 0 0 0 0 0 0 0 0 0 0 0 0 0 0 0 0 0 0 0 0 0 0
0 0 0 0 0 0 0 0 0 0 0 0 0 0 0 0 0 0 0 0 0 0 0 0 0 0 0 0 0 0 0 0 0 0 0 0 0 0 0 0 0 0 0 0 0 0 0 0 0
0 0 0 0 0 0 0 0 0 0 0 0 0 0 0 0 0 0 0 0 0 0 0 0 0 0 0 0 0 0 0 0 0 0 0 0 0 0 0 0 0 0 0 0 0 0 0 0 0
0 0 0 0 0 0 0 0 0 0 0 0 0 0 0 0 0 0 0 0 0 0 0 0 0 0 0 0 0 0 0 0 0 0 0 0 0 0 0 0 0 0 0 0 0 0 0 0 0
0 0 0 0 0 0 0 0 0 0 0 0 0 0 0 0 0 0 0 0 0 0 0 0 0 0 0 0 0 0 0 0 0 0 0 0 0 0 0 0 0 0 0 0 0 0 0 0 0
0 0 0 0 0 0 0 0 0 0 0 0 0 0 0 0 0 0 0 0 0 0 0 0 0 0 0 0 0 0 0 0 0 0 0 0 0 0 0 0 0 0 0 0 0 0 0 0 0
0 0 0 0 0 0 0 0 0 0 0 0 0 0 0 0 0 0 0 0 0 0 0 0 0 0 0 0 0 0 0 0 0 0 0 0 0 0 0 0 0 0 0 0 0 0 0 0 0
0 0 0 0 0 0 0 0 0 0 0 0 0 0 0 0 0 0 0 0 0 0 0 0 0 0 0 0 0 0 0 0 0 0 0 0 0 0 0 0 0 0 0 0 0 0 0 0 0
0 0 0 0 0 0 0 0 0 0 0 0 0 0 0 0 0 0 0 0 0 0 0 0 0 0 0 0 0 0 0 0 0 0 0 0 0 0 0 0 0 0 0 0 0 0 0 0 0
0 0 0 0 0 0 0 0 0 0 0 0 0 0 0 0 0 0 0 0 0 0 0 0 0 0 0 0 0 0 0 0 0 0 0 0 0 0 0 0 0 0 0 0 0 0 0 0 0
0 0 0 0 0 0 0 0 0 0 0 0 0 0 0 0 0 0 0 0 0 0 0 0 0 0 0 0 0 0 0 0 0 0 0 0 0 0 0 0 0 0 0 0 0 0 0 0 0
0 0 0 0 0 0 0 0 0 0 0 0 0 0 0 0 0 0 0 0 0 0 0 0 0 0 0 0 0 0 0 0 0 0 0 0 0 0 0 0 0 0 0 0 0 0 0 0 0
0 0 0 0 0 0 0 0 0 0 0 0 0 0 0 0 0 0 0 0 0 0 0 0 0 0 0 0 0 0 0 0 0 0 0 0 0 0 0 0 0 0 0 0 0 0 0 0 0
0 0 0 0 0 0 0 0 0 0 0 0 0 0 0 0 0 0 0 0 0 0 0 0 0 0 0 0 0 0 0 0 0 0 0 0 0 0 0 0 0 0 0 0 0 0 0 0 0
0 0 0 0 0 0 0 0 0 0 0 0 0 0 0 0 0 0 0 0 0 0 0 0 0 0 0 0 0 0 0 0 0 0 0 0 0 0 0 0 0 0 0 0 0 0 0 0 0
0 0 0 0 0 0 0 0 0 0 0 0 0 0 0 0 0 0 0 0 0 0 0 0 0 0 0 0 0 0 0 0 0 0 0 0 0 0 0 0 0 0 0 0 0 0 0 0 0
Wind_Speed
6 3 3 5 7 7 2 2 2 3 2 1 0 2 2 1 1 1 2 5 4 5 9 10 11 11 10 9 9 8 9 9 9 9 9 8 7 7 6 6 8 10 10 10 9 10 10 11 11
2 2 5 6 7 4 2 3 2 2 2 1 1 2 2 1 1 2 2 4 4 5 7 9 11 11 11 10 9 8 8 8 8 7 7 6 6 5 5 5 8 9 9 8 8 9 9 10 10
1 5 6 6 5 5 3 2 2 3 2 2 2 1 1 1 2 2 2 3 4 5 6 8 12 11 11 11 10 9 8 8 8 7 7 6 5 4 4 5 7 8 8 7 7 7 8 8 8
4 6 7 6 3 3 2 1 1 1 3 3 2 2 2 1 2 2 2 4 4 4 5 6 11 11 11 11 11 11 10 9 9 8 7 7 6 5 5 6 7 8 7 6 6 6 7 8 8
6 6 7 4 2 2 2 2 1 1 2 3 1 2 5 3 2 3 4 3 3 3 3 4 9 10 10 11 11 11 10 9 9 8 8 8 7 7 7 6 7 7 5 5 5 5 6 7 7
6 6 6 1 2 3 2 2 0 2 2 1 1 2 3 3 3 3 3 3 1 2 2 2 7 8 9 10 10 10 9 8 8 7 7 7 7 8 7 7 6 5 4 3 4 5 6 6 6
6 5 4 2 1 2 3 3 2 1 2 2 0 1 3 5 5 4 5 6 5 4 2 1 2 5 8 9 10 9 9 8 7 7 6 6 7 7 7 6 5 3 2 2 3 5 5 5 6
5 6 3 1 1 0 3 2 1 0 2 4 1 1 3 6 7 5 7 7 7 6 5 4 3 3 4 5 9 10 10 9 8 7 6 6 7 8 7 6 4 3 1 1 3 4 4 6 7
4 6 2 4 4 2 1 1 1 1 2 3 3 3 4 9 7 8 8 8 8 8 7 5 4 4 4 4 5 8 9 10 9 7 7 5 3 4 4 4 4 3 3 2 3 3 5 8 8
5 4 4 3 3 2 0 0 3 3 4 2 2 4 9 10 11 10 9 9 9 11 11 6 5 5 5 4 3 3 3 4 5 4 4 3 3 3 4 5 4 3 4 3 3 5 8 7 4
3 4 3 3 2 0 0 1 1 1 2 1 3 5 8 11 12 11 9 7 7 8 9 9 7 6 5 4 3 2 2 2 3 4 4 3 3 3 3 2 3 3 4 3 4 5 3 3 3
1 2 2 2 1 1 1 1 1 1 1 4 5 5 6 10 11 10 10 10 10 9 10 10 8 5 4 4 2 2 1 2 2 2 3 3 3 3 3 2 3 3 3 3 3 2 3 3 3
1 2 2 3 3 3 3 3 2 1 4 6 8 10 10 9 8 8 7 8 9 10 12 11 9 5 2 2 1 1 1 2 2 2 3 4 4 4 4 3 2 3 3 4 4 3 3 1 1
1 3 5 5 3 2 3 2 4 2 5 7 9 9 8 9 10 10 11 12 13 12 13 12 10 6 1 2 2 1 0 1 2 2 2 3 3 4 4 4 3 3 3 3 4 4 4 2 0
1 3 7 5 2 1 2 1 3 5 6 8 8 7 9 9 10 11 10 10 10 11 11 12 10 8 6 5 5 4 4 4 4 5 5 3 2 1 2 3 3 2 2 2 2 3 2 2 1
2 3 4 5 1 0 3 3 0 6 6 6 6 6 7 8 9 9 10 9 10 10 11 12 10 11 11 10 10 8 9 10 9 8 9 10 8 5 3 2 1 2 2 2 2 1 0 1 1
2 2 4 6 2 1 3 4 1 3 6 5 4 5 6 7 10 9 10 9 9 9 9 11 12 12 12 12 12 12 12 12 10 10 11 12 13 11 7 5 5 4 3 3 2 2 2 2 1
7 6 5 6 3 2 3 5 3 1 5 5 5 5 5 7 8 8 9 9 8 8 8 10 11 11 8 8 10 10 12 11 11 11 13 14 13 13 10 8 8 6 5 4 3 3 2 2 2
6 7 6 6 2 2 5 7 7 1 4 5 4 4 4 5 5 7 8 9 9 10 11 11 12 11 8 6 5 7 8 9 10 11 14 15 14 13 12 9 9 8 6 5 4 2 3 3 2
5 5 6 6 2 4 5 8 6 1 1 4 6 5 4 4 5 7 8 9 10 10 10 10 11 10 10 6 5 5 5 7 7 9 12 14 14 14 11 12 9 9 7 9 7 5 3 3 3
6 8 7 6 2 1 2 7 6 2 3 4 4 4 4 4 4 5 7 8 8 9 9 8 9 10 10 8 6 6 5 5 7 9 10 12 13 13 13 12 10 10 9 8 9 7 5 3 3
8 8 7 4 2 4 1 6 7 4 3 4 4 4 4 3 3 3 5 6 7 7 6 7 9 11 10 9 11 13 10 9 6 5 6 9 12 13 12 12 11 11 9 10 9 9 5 4 3
6 3 5 3 5 3 2 4 9 2 5 8 7 6 5 4 4 4 3 4 5 5 6 6 9 11 10 10 11 12 11 7 5 5 9 9 9 11 12 11 10 10 9 10 10 9 9 6 4
7 7 6 5 3 4 7 8 9 6 6 5 8 8 7 6 5 4 3 3 4 5 5 6 9 11 9 10 11 12 12 9 9 9 8 7 6 8 11 10 9 9 8 9 8 8 8 8 6
5 6 2 2 1 8 2 5 10 3 0 5 12 11 8 7 6 5 4 4 3 4 4 5 8 9 8 9 10 9 9 9 9 7 6 6 5 6 8 8 7 7 7 7 7 7 7 7 6
6 8 8 7 6 5 2 8 7 1 3 2 7 9 8 7 6 6 6 5 4 4 4 5 6 7 6 7 7 7 7 6 5 6 5 5 4 4 5 5 6 6 6 7 6 5 5 5 5
7 5 5 6 2 3 7 7 5 0 1 3 6 8 9 9 8 8 7 6 6 6 5 5 6 6 6 6 6 6 6 6 6 5 4 3 3 3 5 5 5 5 5 5 5 4 5 5 4
6 8 6 5 4 6 7 6 6 7 6 6 8 11 11 9 8 8 7 7 7 6 5 5 5 6 5 5 5 5 5 5 5 4 5 4 4 4 4 5 5 5 5 5 5 4 5 5 5
6 5 5 5 5 6 6 8 5 6 9 13 14 12 11 11 10 9 8 8 7 6 6 5 5 5 5 4 4 5 4 4 4 3 3 3 3 3 4 4 5 5 5 5 5 6 6 7 7
7 8 10 8 7 6 5 8 0 2 7 10 11 10 10 10 9 8 8 8 8 7 7 7 6 6 5 5 4 4 4 3 3 2 1 1 2 2 3 3 4 5 5 5 6 8 7 7 9
Wind_Direction
347 26 64 56 54 51 54 311 279 306 299 284 192 122 111 131 127 275 304 151 172 158 168 178 178 178 175 169 161 155 148 141 134 128 121 114 110 105 97 96 103 96 84 72 61 53 48 42 37
337 29 54 59 80 76 292 277 271 273 312 9 55 84 67 341 265 293 347 181 176 162 170 177 178 178 174 170 166 163 158 151 143 135 126 120 115 111 105 101 107 96 87 76 66 56 47 40 35
48 51 76 71 93 152 195 238 245 306 2 36 39 57 98 307 324 308 324 165 160 163 173 178 178 180 178 174 171 170 168 164 158 152 144 136 127 120 118 116 112 97 86 77 67 56 46 39 36
63 42 51 67 82 199 224 275 260 339 19 32 56 30 329 300 301 326 33 106 137 162 172 177 181 185 183 180 181 181 179 177 174 171 165 158 148 140 135 129 115 100 89 79 69 55 44 37 36
58 68 57 48 341 295 277 320 282 67 12 345 51 18 316 347 17 46 68 87 130 151 167 180 187 191 190 188 189 190 191 189 188 186 181 172 162 152 145 133 117 102 87 75 69 57 46 37 37
53 62 82 119 314 329 354 337 68 43 356 348 85 5 328 11 27 36 64 65 88 144 164 183 196 200 199 197 197 196 197 197 197 198 193 182 173 163 154 141 125 108 84 61 59 57 47 37 36
91 87 127 152 311 3 348 340 78 20 349 335 276 18 336 17 1 28 49 45 34 29 21 315 220 211 209 205 204 203 202 203 204 206 202 191 182 172 160 147 140 127 88 43 58 61 43 32 30
110 98 95 123 159 290 316 351 118 278 290 324 21 60 356 341 344 30 40 37 30 24 7 340 300 241 219 214 211 209 208 209 210 213 215 206 193 180 164 151 149 143 106 50 79 72 41 38 31
80 77 149 197 181 202 297 23 315 280 329 349 35 63 354 330 1 30 19 10 7 5 357 341 312 271 239 219 218 217 218 215 213 215 220 214 181 162 152 156 157 135 107 95 102 83 63 55 32
77 122 211 212 195 194 271 302 319 5 358 7 23 43 6 14 29 34 22 2 351 342 337 337 319 289 257 226 206 212 218 220 211 205 209 180 157 159 159 169 161 130 112 108 115 90 75 60 32
100 172 236 261 245 220 275 267 298 329 326 357 335 356 6 20 28 25 13 357 337 323 325 331 319 296 267 237 201 189 197 217 219 210 192 163 153 146 147 142 144 124 113 96 83 81 79 69 51
104 224 223 265 59 335 238 223 266 212 79 60 60 52 30 27 21 11 358 347 338 334 333 328 320 300 271 247 217 188 193 213 223 202 175 159 152 154 154 161 157 143 136 134 121 118 106 79 56
197 273 280 265 274 244 232 211 196 117 100 86 71 55 40 32 17 2 351 346 346 345 340 335 326 313 276 223 189 165 212 241 243 211 183 173 167 169 162 169 168 163 155 157 150 147 144 112 43
282 300 306 293 286 246 219 225 162 143 120 76 59 51 40 32 17 10 5 360 354 348 342 339 345 349 30 112 120 111 82 288 282 271 241 197 175 168 166 169 175 179 178 169 162 162 162 163 150
48 347 320 298 289 271 155 267 200 149 119 75 55 44 39 31 22 15 2 355 348 345 345 354 2 19 52 73 76 63 45 31 21 13 10 15 27 145 150 162 179 184 154 140 132 140 145 157 170
63 25 306 293 295 202 153 256 98 147 120 88 61 44 37 29 20 11 3 358 353 354 359 7 17 32 49 60 63 58 50 46 38 31 30 30 29 39 58 59 46 72 92 101 111 104 205 194 202
19 255 250 290 264 155 179 239 219 135 117 109 79 54 41 29 20 10 4 358 356 358 5 19 26 35 49 61 65 61 55 49 41 36 34 31 33 34 42 42 39 54 64 58 56 48 14 334 318
217 212 236 252 267 163 206 250 264 130 120 119 97 70 51 38 18 5 2 1 359 4 18 29 33 31 39 57 65 61 54 48 44 39 33 33 32 33 38 41 36 36 45 43 43 51 45 16 350
171 182 222 247 256 199 231 252 260 214 111 126 119 93 67 44 16 14 10 6 11 18 27 31 38 32 38 47 51 55 52 44 45 43 37 36 35 34 38 36 34 33 41 39 38 42 42 32 6
162 189 235 274 265 205 246 261 261 82 120 158 148 127 98 61 26 19 16 17 19 19 21 31 37 39 44 56 66 78 84 60 55 48 44 39 39 37 38 37 36 31 36 36 31 30 30 30 28
204 205 216 231 338 330 288 285 251 117 87 92 112 120 110 92 59 28 21 19 19 24 21 35 40 46 46 54 75 77 65 58 47 42 43 38 40 42 41 40 40 36 35 31 24 20 30 13 9
226 217 200 206 219 274 222 279 276 183 162 166 159 147 138 116 87 58 38 30 24 18 20 39 50 54 49 55 74 79 78 74 55 50 49 44 42 42 41 40 41 41 38 33 25 23 17 22 9
202 145 159 176 188 246 238 239 273 194 224 208 187 176 167 154 130 102 71 53 36 24 31 43 59 60 55 61 73 84 83 81 69 56 52 45 39 38 37 37 38 37 35 33 29 26 27 25 18
133 85 69 57 97 246 216 203 267 229 223 184 180 183 178 170 155 137 111 83 58 42 43 51 69 65 58 67 71 81 86 82 72 58 51 43 37 34 31 34 35 33 30 27 24 23 25 21 18
131 112 73 325 274 248 228 214 248 236 219 192 184 181 181 177 169 165 153 127 99 75 64 66 78 75 66 73 75 78 82 80 76 69 58 50 40 32 23 27 28 28 23 22 18 20 16 13 8
179 158 170 201 224 264 232 232 252 335 323 259 170 166 173 182 185 184 177 161 146 129 110 98 94 92 84 83 82 79 82 83 79 71 69 60 49 38 19 23 26 23 20 19 13 14 4 357 350
148 198 162 122 120 266 254 264 284 171 38 97 143 162 186 195 196 193 184 176 171 163 155 141 123 111 104 101 98 89 85 84 82 76 68 60 43 31 20 18 18 14 10 7 2 356 342 334 328
153 146 123 153 211 252 266 240 234 214 207 181 187 194 200 202 203 198 189 184 182 177 165 153 138 131 128 120 112 105 96 93 92 81 65 52 34 21 11 10 7 1 357 353 346 332 321 320 314
142 155 161 162 173 188 260 259 225 208 188 194 202 201 200 203 206 201 191 186 182 175 170 164 158 148 146 142 131 122 114 105 95 82 66 46 24 10 4 355 349 343 340 337 330 321 317 316 310
182 181 159 176 214 205 233 264 286 212 191 191 197 201 206 211 207 195 185 181 182 184 184 182 177 174 174 166 155 150 145 135 121 107 82 40 8 350 340 334 331 329 330 322 317 313 315 306 306